TimeCET,TemperatureF,Dew PointF,Humidity,Sea Level PressureIn,VisibilityMPH,Wind Direction,Wind SpeedMPH,Gust SpeedMPH,PrecipitationIn,Events,Conditions,WindDirDegrees,DateUTC
1:00 AM,31,30,93,,4,WNW,12.7,,,Snow,Light Snow,300,2013-02-13 00:00:00
1:00 AM,32.0,30.2,93,30.01,3.7,WNW,12.7,-,N/A,,Mostly Cloudy,300,2013-02-13 00:00:00
2:00 AM,30.2,30.2,100,29.98,3.7,West,8.1,-,N/A,,Mostly Cloudy,260,2013-02-13 01:00:00
3:00 AM,30.2,28.4,93,29.98,4.3,West,5.8,-,N/A,,Mostly Cloudy,280,2013-02-13 02:00:00
4:00 AM,29,27,91,,4,West,6.9,,,,Partly Cloudy,280,2013-02-13 03:00:00
4:00 AM,28.4,26.6,93,29.98,4.3,West,6.9,-,N/A,,Mostly Cloudy,280,2013-02-13 03:00:00
5:00 AM,28.4,26.6,93,29.95,4.3,West,6.9,-,N/A,,Mostly Cloudy,280,2013-02-13 04:00:00
6:00 AM,28.4,26.6,93,29.95,5.0,WNW,2.3,-,N/A,,Mostly Cloudy,300,2013-02-13 05:00:00
7:00 AM,24,22,90,,5,West,3.5,,,,Partly Cloudy,280,2013-02-13 06:00:00
7:00 AM,24.8,23.0,93,29.95,5.0,West,3.5,-,N/A,,Scattered Clouds,280,2013-02-13 06:00:00
8:00 AM,24.8,15.8,69,29.98,5.0,West,2.3,-,N/A,,Mostly Cloudy,260,2013-02-13 07:00:00
9:00 AM,32.0,23.0,69,29.98,6.2,WNW,2.3,-,N/A,,Mostly Cloudy,300,2013-02-13 08:00:00
10:00 AM,33,29,79,,4,WSW,4.6,,,,Mostly Cloudy,240,2013-02-13 09:00:00
10:00 AM,32.0,28.4,87,29.95,3.7,WSW,4.6,-,N/A,,Mostly Cloudy,240,2013-02-13 09:00:00
11:00 AM,35.6,24.8,65,29.98,3.7,WNW,6.9,-,N/A,Snow,Light Snow,300,2013-02-13 10:00:00
12:00 PM,37.4,28.4,70,29.98,3.7,West,2.3,-,N/A,,Mostly Cloudy,260,2013-02-13 11:00:00
1:00 PM,37,32,76,,4,West,5.8,,,,Partly Cloudy,260,2013-02-13 12:00:00
1:00 PM,37.4,32.0,81,29.98,3.7,West,5.8,-,N/A,,Mostly Cloudy,260,2013-02-13 12:00:00
2:00 PM,41.0,32.0,70,29.95,5.0,West,13.8,-,N/A,,Mostly Cloudy,280,2013-02-13 13:00:00
3:00 PM,37.4,33.8,87,29.95,5.0,WNW,10.4,-,N/A,,Mostly Cloudy,300,2013-02-13 14:00:00
4:00 PM,35,33,87,,3,WNW,11.5,,,Snow,Light Snow,300,2013-02-13 15:00:00
4:00 PM,35.6,32.0,87,29.98,3.1,WNW,11.5,-,N/A,Snow,Light Snow,300,2013-02-13 15:00:00
5:00 PM,37.4,30.2,75,29.98,5.0,WNW,17.3,-,N/A,,Partly Cloudy,300,2013-02-13 16:00:00
6:00 PM,35.6,32.0,87,29.95,2.5,WNW,13.8,-,N/A,,Mostly Cloudy,300,2013-02-13 17:00:00
7:00 PM,36,30,73,,4,West,20.7,,,Rain,Light Drizzle,280,2013-02-13 18:00:00
7:00 PM,37.4,30.2,75,29.95,3.7,West,20.7,-,N/A,,Light Drizzle,280,2013-02-13 18:00:00
8:00 PM,35.6,32.0,87,30.01,3.7,WNW,16.1,-,N/A,Snow,Light Snow,300,2013-02-13 19:00:00
9:00 PM,33.8,32.0,93,30.01,5.0,West,11.5,-,N/A,,Scattered Clouds,280,2013-02-13 20:00:00
10:00 PM,35,32,84,,4,NW,18.4,,,Snow,Light Snow,320,2013-02-13 21:00:00
10:00 PM,35.6,32.0,87,30.01,4.3,NW,18.4,-,N/A,Snow,Light Snow,320,2013-02-13 21:00:00
11:00 PM,33.8,32.0,93,30.04,3.7,NW,16.1,-,N/A,Snow,Light Snow,320,2013-02-13 22:00:00